Location: Chakepay
(13.3931°S, 72.1925°W)
Time: 02:02:30
(UTC+00:00)

Landsat 5 - Pass Details

Date: 15 November 2019
Orbit: 528 x 655 km, 98.1° (Epoch: 12 December)

Event Time Altitude Azimuth Distance (km) Brightness Sun altitude
Rises 08:27:18 0° 177° (S) 2,990 7.5 -24.1°
Reaches altitude 10° 08:29:35 10° 182° (S) 2,075 6.5 -23.6°
Enters shadow 08:33:30 47° 235° (SW) 866 4.0 -22.8°
